Location: Rockford
(42.2710°N, 89.0940°W)
Time: 10:00:56
(UTC-05:00)

Daily predictions for brighter satellites

Satellite Brightness Start Highest point End
(mag) Time Altitude Azimuth Time Altitude Azimuth Time Altitude Azimuth
Cosmos 1743 Rocket 4.1 21:05:05 10° SSW 21:09:31 64° W 21:13:57 10° N
Meteor 1-21 Rocket 4.3 21:04:48 10° S 21:10:20 89° W 21:15:54 10° N
Cosmos 1500 Rocket 3.7 21:10:44 10° S 21:15:07 82° W 21:19:34 10° N
S3M 4.4 21:09:45 10° NNW 21:15:50 68° W 21:21:54 10° S
Cosmos 2228 Rocket 4.4 21:11:46 10° NNW 21:16:01 43° W 21:20:17 10° SSW
Cosmos 1437 3.2 21:16:35 10° SSE 21:19:42 42° E 21:22:50 10° NNE
Cosmos 1726 3.9 21:17:50 10° NNE 21:20:34 19° ENE 21:23:18 10° ESE
Cosmos 1328 4.3 21:17:05 10° SSE 21:20:46 39° E 21:24:29 10° NNE
ATLAS 2AS CENTAUR R/B 4.4 21:19:21 10° SE 21:22:49 14° E 21:26:22 10° ENE
Envisat 3.0 21:20:45 10° SSE 21:25:48 80° ENE 21:30:55 10° N
ERS-1 Rocket 3.5 21:21:58 10° S 21:26:55 60° WSW 21:31:55 10° NNW
Cosmos 2219 3.4 21:23:11 10° S 21:28:43 52° ESE 21:34:17 10° NNE
Delta 2 Rocket 4.0 21:26:10 10° SW 21:29:17 27° S 21:31:53 12° ESE
deb Chang Zheng 4 3.7 21:26:32 10° N 21:30:53 79° WNW 21:35:12 10° SSW
Cosmos 2237 Rocket 3.9 21:30:34 10° N 21:34:45 20° NE 21:38:56 10° E
Cosmos 2322 3.9 21:31:27 10° NNW 21:37:12 78° WSW 21:42:53 10° SSE
Cosmos 2322 Rocket 4.0 21:32:53 10° NW 21:37:28 27° WSW 21:42:03 10° SSW
SL-23 DEB 4.0 21:32:02 10° WNW 21:37:33 88° SW 21:40:32 14° SE
Cosmos 1271 Rocket 4.4 21:34:51 10° NNE 21:37:43 20° ENE 21:40:05 12° ESE
Cosmos 2112 Rocket 4.0 21:33:02 10° NNW 21:38:18 82° ENE 21:43:24 11° SSE
Cosmos 2151 2.9 21:37:24 10° S 21:41:36 87° E 21:45:49 10° N
SL-14 R/B 4.1 21:40:06 12° SSE 21:43:16 34° E 21:46:54 10° NNE
Meteor 1-4 Rocket 4.1 21:40:14 10° NNE 21:43:18 23° ENE 21:45:29 14° ESE
Meteor 1-27 4.5 21:40:09 10° N 21:45:46 55° ENE 21:50:34 14° SSE
Nimbus 7 Rocket 4.5 21:39:54 10° NNE 21:45:47 84° WNW 21:51:39 10° SSW
NOSS 3-1 (C) 3.5 21:40:23 10° SSW 21:46:04 57° ESE 21:52:22 10° NE
Terra 3.5 21:43:25 11° ESE 21:46:39 20° ENE 21:50:02 10° NNE
Cosmos 2360 Rocket 2.6 21:41:05 10° NNW 21:46:41 63° WSW 21:52:15 10° S
Cosmos 2298 Rocket 4.4 21:41:50 10° S 21:46:53 46° ESE 21:51:57 10° NNE
SL-16 R/B 4.2 21:44:36 10° NW 21:48:57 23° W 21:53:19 10° SSW
Aureole 3 4.3 21:43:14 10° S 21:49:55 85° E 21:55:12 10° N
MetOp-B 4.1 21:44:55 10° SSE 21:50:13 83° ENE 21:55:36 10° NNW
Sich 1 3.6 21:48:46 13° SSE 21:52:21 41° E 21:56:30 10° NNE
CZ-4 SHROUD 3.5 21:51:29 12° S 21:54:17 62° WSW 21:57:25 10° NNW
DELTA 2 R/B (1) 4.2 21:49:12 10° W 21:54:20 39° SSW 21:58:07 17° SE
USA 245 2.6 21:53:36 23° SE 21:54:47 43° ENE 21:57:01 10° N
Cosmos 1633 Rocket 3.5 21:52:39 14° SSE 21:56:02 42° E 22:00:11 10° NNE
Cosmos 2058 2.8 21:52:34 10° S 21:56:40 78° E 22:00:46 10° N
Cosmos 1151 Rocket 4.2 21:55:44 10° NNW 21:59:46 40° W 22:03:49 10° SSW
OAO 2 Rocket 4.3 21:55:43 10° SW 22:00:11 28° SSE 22:03:20 16° ESE
Cosmos 1626 4.0 22:01:02 14° E 22:01:49 15° E 22:04:03 10° NE
Cosmos 1674 4.5 21:59:26 10° SW 22:02:55 33° WNW 22:06:26 10° N
CZ-4 R/B 4.0 22:04:27 10° NNE 22:09:20 58° E 22:13:19 15° S
SL-08 RB Rocket 3.8 22:06:50 20° SSE 22:09:48 60° ENE 22:14:14 10° N
CZ-4B R/B 3.5 22:05:49 10° NNE 22:11:08 84° ESE 22:16:19 10° SSW
H-2A R/B 2.9 22:08:02 19° SE 22:11:29 40° ENE 22:16:32 10° N
Cosmos 1805 Rocket 3.7 22:07:05 10° SSW 22:11:31 76° W 22:15:59 10° N
Cosmos 2227 Rocket 3.0 22:11:30 19° SSE 22:14:34 32° ESE 22:19:32 10° NE
Meteor 1-11 4.3 22:08:47 10° S 22:14:34 88° E 22:20:20 10° N
Cosmos 1300 2.9 22:11:22 10° NNW 22:15:12 71° W 22:17:53 19° S
YAOGAN 6 3.0 22:12:45 17° S 22:15:26 57° W 22:19:01 10° NNW
Tiangong 1 1.2 22:12:48 10° SW 22:15:49 48° SSE 22:17:13 26° E
Cosmos 2315 Rocket 4.3 22:09:43 10° NNW 22:15:51 65° W 22:21:58 10° S
SPOT 1/Viking Rocket 3.7 22:19:48 17° S 22:23:47 70° WSW 22:28:57 10° NNW
Cosmos 2333 Rocket 2.6 22:22:17 10° NNW 22:27:56 54° ENE 22:31:18 24° SE
Cosmos 1898 Rocket 3.5 22:23:01 10° SSW 22:28:12 89° WNW 22:33:27 10° NNE
SL-16 R/B 3.8 22:23:47 10° N 22:28:19 24° NE 22:32:01 13° E
Cosmos 1707 Rocket 4.2 22:25:29 10° NNW 22:29:43 51° W 22:32:56 17° SSW
DELTA 2 R/B(2) 4.2 22:27:55 10° WSW 22:29:21 41° SW 22:29:21 41° SW
IGS 5A 4.1 22:29:10 27° ESE 22:30:52 42° ENE 22:34:50 10° N
Cosmos 858 Rocket 4.5 22:28:21 10° SSW 22:33:35 88° WNW 22:38:49 10° NNE
Cosmos 1666 Rocket 4.1 22:29:56 11° SSW 22:34:06 58° W 22:38:29 10° N
Cosmos 220 Rocket 3.9 22:31:40 20° S 22:34:39 72° ESE 22:39:05 10° NNE
Cosmos 2150 Rocket 4.2 22:30:14 10° SSW 22:35:41 77° WNW 22:41:10 10° NNE
Cosmos 1455 2.7 22:34:07 10° N 22:37:47 44° ENE 22:38:49 35° ESE
Nadezhda 1 Rocket 4.0 22:32:43 10° N 22:38:48 67° E 22:42:18 27° SSE
COSMOS 2428 3.4 22:34:10 10° NW 22:39:37 48° WSW 22:43:18 20° S
Cosmos 2297 Rocket 2.8 22:39:28 28° SSE 22:41:32 37° ESE 22:46:42 10° NE
SAR-Lupe-2 4.0 22:40:40 37° ESE 22:41:34 47° ENE 22:45:02 10° N
ARGOS 3.7 22:41:02 19° S 22:44:48 55° W 22:50:06 10° NNW
Cosmos 1470 Rocket 3.4 22:45:42 32° S 22:47:38 77° E 22:51:57 10° N
Cosmos 2219 Rocket 2.1 22:42:08 10° NNW 22:47:45 83° WSW 22:50:35 30° SSE
Cosmos 1933 Rocket 3.5 22:46:48 32° S 22:48:50 77° E 22:53:19 10° N
NOSS 3-1 (A) 3.7 22:44:10 10° SW 22:50:04 71° NW 22:56:40 10° NNE
Cosmos 1745 Rocket 4.0 22:47:12 19° S 22:51:54 86° W 22:58:08 10° N
Cosmos 1869 3.4 22:51:15 10° N 22:55:17 61° E 22:56:15 45° SE
Cosmos 1726 3.9 22:52:43 10° NNW 22:55:58 28° W 22:58:06 17° SW
DMSP B5D2-2 4.0 22:53:32 10° NNE 22:58:47 77° ESE 23:01:25 30° S
Cosmos 1709 Rocket 4.3 22:57:41 31° SE 23:00:13 49° E 23:06:04 10° NNE
CZ-4C R/B 3.9 22:59:54 33° SW 23:00:54 42° W 23:04:13 10° NNW
NOSS 0 Rocket 4.0 22:56:11 10° NNW 23:02:20 74° WSW 23:05:19 32° S
ERBS 2.2 23:05:20 64° SSW 23:05:48 81° SE 23:09:17 10° NE
Cosmos 1980 3.7 23:01:09 10° NNW 23:06:49 81° WSW 23:09:10 37° SSE
Landsat 7 4.5 23:05:56 27° SSW 23:08:10 48° W 23:12:47 10° NNW
ATLAS 2AS CENTAUR R/B 2.9 23:05:37 13° SSW 23:12:20 72° ESE 23:20:22 10° NE
Spot 2 4.4 23:08:37 10° NNE 23:13:45 90° E 23:15:54 35° SSW
Cosmos 1271 Rocket 4.4 23:10:30 10° NNW 23:13:47 27° W 23:15:19 21° SW
Cosmos 1386 Rocket 4.5 23:12:51 26° SSW 23:16:27 76° W 23:22:29 10° N
Cosmos 1346 4.1 23:17:15 38° W 23:17:36 40° WNW 23:20:30 10° N
Cosmos 2237 Rocket 2.3 23:13:42 10° NNW 23:19:23 70° WSW 23:21:31 39° S
Cosmos 44 Rocket 4.4 23:22:33 29° ESE 23:22:33 29° ESE 23:26:38 10° NE
Terra 2.4 23:22:18 33° SSW 23:24:02 48° W 23:28:39 10° NNW
Cosmos 2082 3.9 23:19:48 19° SSW 23:24:02 73° WNW 23:29:48 10° NNE
COS B Rocket 3.7 23:20:46 10° NNE 23:24:29 47° E 23:24:36 47° E
Cosmos 2181 Rocket 4.1 23:20:14 10° N 23:26:38 72° E 23:29:09 39° SSE
Spot 4 4.2 23:26:34 39° SSW 23:28:07 57° W 23:32:55 10° NNW
ATLAS 3B R/B 2.8 23:21:06 10° NNW 23:28:09 72° NE 23:31:15 34° SE
Cosmos 1862 Rocket 4.3 23:24:20 10° NNW 23:28:29 44° W 23:29:43 35° SW
Lacrosse 4 Rocket 1.9 23:24:27 10° NNW 23:28:48 54° ENE 23:29:44 44° ESE
Meteor 2-3 Rocket 4.5 23:33:21 34° ESE 23:34:29 37° E 23:39:41 10° NNE
Cosmos 1626 3.6 23:35:44 26° WSW 23:36:55 33° WNW 23:40:22 10° N
Cosmos 1900 4.2 23:33:46 10° NNW 23:38:46 86° ENE 23:39:48 57° SE
Cosmos 1689 Rocket 4.5 23:47:10 19° ENE 23:47:10 19° ENE 23:49:15 10° NNE
NOSS 2-3 (E) 4.0 23:46:41 55° SE 23:47:04 56° ESE 23:52:30 10° NE
H-2A R/B 3.6 23:48:41 20° SW 23:50:58 27° W 23:55:34 10° NW
COSMOS 2455 2.8 23:45:35 10° NNW 23:51:38 80° WSW 23:53:21 49° SSE
Tiangong 1 4.0 23:49:15 10° W 23:49:21 11° W 23:49:21 11° W
Cosmos 1269 Rocket 4.1 23:48:03 10° NNW 23:53:20 66° WSW 23:54:28 51° SSW
Cosmos 1933 3.7 23:50:39 10° NNW 23:54:37 53° W 23:54:51 52° WSW
